����������;��������(kWh)
2018-09-10 00:00;78,55
2018-09-10 00:15;78,05
2018-09-10 00:30;79,05
2018-09-10 00:45;79,95
2018-09-10 01:00;77,3
2018-09-10 01:15;77,8
2018-09-10 01:30;76,45
2018-09-10 01:45;77,35
2018-09-10 02:00;77,2
2018-09-10 02:15;77,3
2018-09-10 02:30;75,6
2018-09-10 02:45;74,2
2018-09-10 03:00;75,3
2018-09-10 03:15;74,55
2018-09-10 03:30;75,55
2018-09-10 03:45;77,85
2018-09-10 04:00;83,85
2018-09-10 04:15;85,45
2018-09-10 04:30;86
2018-09-10 04:45;85,4
2018-09-10 05:00;87,1
2018-09-10 05:15;88,6
2018-09-10 05:30;89,55
2018-09-10 05:45;87,3
2018-09-10 06:00;85,95
2018-09-10 06:15;82,65
2018-09-10 06:30;90,1
2018-09-10 06:45;111,3
2018-09-10 07:00;111,55
2018-09-10 07:15;104,65
2018-09-10 07:30;156
2018-09-10 07:45;160,05
2018-09-10 08:00;168,35
2018-09-10 08:15;159,95
2018-09-10 08:30;147,75
2018-09-10 08:45;161,55
2018-09-10 09:00;183,05
2018-09-10 09:15;187,9
2018-09-10 09:30;213,75
2018-09-10 09:45;198,35
2018-09-10 10:00;209,65
2018-09-10 10:15;225,95
2018-09-10 10:30;221,65
2018-09-10 10:45;226
2018-09-10 11:00;240,5
2018-09-10 11:15;236,05
2018-09-10 11:30;246,7
2018-09-10 11:45;262,25
2018-09-10 12:00;240,6
2018-09-10 12:15;264,1
2018-09-10 12:30;252,3
2018-09-10 12:45;257,9
2018-09-10 13:00;260,85
2018-09-10 13:15;257,4
2018-09-10 13:30;275,5
2018-09-10 13:45;254,8
2018-09-10 14:00;270,25
2018-09-10 14:15;269,6
2018-09-10 14:30;250,75
2018-09-10 14:45;266,2
2018-09-10 15:00;245,85
2018-09-10 15:15;238
2018-09-10 15:30;251,8
2018-09-10 15:45;223,3
2018-09-10 16:00;230,4
2018-09-10 16:15;233,05
2018-09-10 16:30;200,9
2018-09-10 16:45;208,15
2018-09-10 17:00;199,2
2018-09-10 17:15;181,95
2018-09-10 17:30;161,2
2018-09-10 17:45;165,3
2018-09-10 18:00;155,45
2018-09-10 18:15;150,5
2018-09-10 18:30;158,05
2018-09-10 18:45;147,1
2018-09-10 19:00;150,15
2018-09-10 19:15;138,15
2018-09-10 19:30;138
2018-09-10 19:45;135,65
2018-09-10 20:00;131,6
2018-09-10 20:15;128,6
2018-09-10 20:30;122,55
2018-09-10 20:45;122,3
2018-09-10 21:00;106,2
2018-09-10 21:15;103,5
2018-09-10 21:30;104,05
2018-09-10 21:45;99,05
2018-09-10 22:00;93,7
2018-09-10 22:15;90,7
2018-09-10 22:30;87,35
2018-09-10 22:45;85,45
2018-09-10 23:00;86,25
2018-09-10 23:15;83,4
2018-09-10 23:30;83,25
2018-09-10 23:45;85,4
2018-09-11 00:00;78,8
2018-09-11 00:15;79,9
2018-09-11 00:30;79,7
2018-09-11 00:45;79,3
2018-09-11 01:00;79,5
2018-09-11 01:15;79,4
2018-09-11 01:30;77,9
2018-09-11 01:45;80,05
2018-09-11 02:00;77,05
2018-09-11 02:15;76,85
2018-09-11 02:30;77,95
2018-09-11 02:45;77,85
2018-09-11 03:00;79,2
2018-09-11 03:15;78,7
2018-09-11 03:30;77,45
2018-09-11 03:45;78,05
2018-09-11 04:00;79,9
2018-09-11 04:15;77,95
2018-09-11 04:30;85,4
2018-09-11 04:45;89,25
2018-09-11 05:00;90,75
2018-09-11 05:15;91,3
2018-09-11 05:30;92,75
2018-09-11 05:45;90,35
2018-09-11 06:00;91,1
2018-09-11 06:15;90,5
2018-09-11 06:30;88,2
2018-09-11 06:45;102,25
2018-09-11 07:00;113,95
2018-09-11 07:15;109,4
2018-09-11 07:30;155
2018-09-11 07:45;148,3
2018-09-11 08:00;151,75
2018-09-11 08:15;140,6
2018-09-11 08:30;152,55
2018-09-11 08:45;165,25
2018-09-11 09:00;171,8
2018-09-11 09:15;181,9
2018-09-11 09:30;187,95
2018-09-11 09:45;197
2018-09-11 10:00;200,25
2018-09-11 10:15;207,45
2018-09-11 10:30;213,3
2018-09-11 10:45;231,55
2018-09-11 11:00;211,85
2018-09-11 11:15;222,9
2018-09-11 11:30;233,4
2018-09-11 11:45;228,05
2018-09-11 12:00;231,4
2018-09-11 12:15;241,55
2018-09-11 12:30;236
2018-09-11 12:45;238,7
2018-09-11 13:00;244,45
2018-09-11 13:15;241
2018-09-11 13:30;238,9
2018-09-11 13:45;239,3
2018-09-11 14:00;238,05
2018-09-11 14:15;229,8
2018-09-11 14:30;229,4
2018-09-11 14:45;233,9
2018-09-11 15:00;232,6
2018-09-11 15:15;228,6
2018-09-11 15:30;227,1
2018-09-11 15:45;222,5
2018-09-11 16:00;213,55
2018-09-11 16:15;212,6
2018-09-11 16:30;205,05
2018-09-11 16:45;203
2018-09-11 17:00;194,05
2018-09-11 17:15;183,35
2018-09-11 17:30;185,6
2018-09-11 17:45;182,25
2018-09-11 18:00;169,85
2018-09-11 18:15;171,2
2018-09-11 18:30;164,6
2018-09-11 18:45;163,6
2018-09-11 19:00;160,1
2018-09-11 19:15;138,55
2018-09-11 19:30;130,1
2018-09-11 19:45;131,95
2018-09-11 20:00;132,75
2018-09-11 20:15;126,7
2018-09-11 20:30;127,2
2018-09-11 20:45;123,4
2018-09-11 21:00;121,95
2018-09-11 21:15;116,6
2018-09-11 21:30;115,15
2018-09-11 21:45;111,2
2018-09-11 22:00;103,15
2018-09-11 22:15;102,45
2018-09-11 22:30;98,65
2018-09-11 22:45;96
2018-09-11 23:00;98,2
2018-09-11 23:15;96,2
2018-09-11 23:30;93,15
2018-09-11 23:45;96,25
2018-09-12 00:00;87,55
2018-09-12 00:15;82,95
2018-09-12 00:30;80,4
2018-09-12 00:45;79,95
2018-09-12 01:00;81,4
2018-09-12 01:15;78,45
2018-09-12 01:30;81,9
2018-09-12 01:45;88,5
2018-09-12 02:00;86,75
2018-09-12 02:15;88,7
2018-09-12 02:30;89,65
2018-09-12 02:45;89,7
2018-09-12 03:00;86,75
2018-09-12 03:15;90,65
2018-09-12 03:30;86,9
2018-09-12 03:45;89,7
2018-09-12 04:00;89,65
2018-09-12 04:15;89,75
2018-09-12 04:30;89,85
2018-09-12 04:45;88,85
2018-09-12 05:00;89,6
2018-09-12 05:15;91,65
2018-09-12 05:30;93,35
2018-09-12 05:45;95,2
2018-09-12 06:00;92,5
2018-09-12 06:15;87,5
2018-09-12 06:30;89,2
2018-09-12 06:45;86,5
2018-09-12 07:00;88,2
2018-09-12 07:15;111,6
2018-09-12 07:30;163,1
2018-09-12 07:45;146,8
2018-09-12 08:00;151,25
2018-09-12 08:15;135,1
2018-09-12 08:30;143,65
2018-09-12 08:45;161,9
2018-09-12 09:00;166,15
2018-09-12 09:15;159,05
2018-09-12 09:30;175,5
2018-09-12 09:45;176
2018-09-12 10:00;174,2
2018-09-12 10:15;186,5
2018-09-12 10:30;204,2
2018-09-12 10:45;201,85
2018-09-12 11:00;199,2
2018-09-12 11:15;216,35
2018-09-12 11:30;222,6
2018-09-12 11:45;217,65
2018-09-12 12:00;237,15
2018-09-12 12:15;229,65
2018-09-12 12:30;220,25
2018-09-12 12:45;226,8
2018-09-12 13:00;236
2018-09-12 13:15;233,9
2018-09-12 13:30;235,05
2018-09-12 13:45;229,35
2018-09-12 14:00;218,05
2018-09-12 14:15;224,05
2018-09-12 14:30;223,15
2018-09-12 14:45;209,75
2018-09-12 15:00;213,8
2018-09-12 15:15;207,3
2018-09-12 15:30;190,15
2018-09-12 15:45;183,55
2018-09-12 16:00;182,2
2018-09-12 16:15;172,5
2018-09-12 16:30;177,55
2018-09-12 16:45;172,45
2018-09-12 17:00;170,65
2018-09-12 17:15;166,6
2018-09-12 17:30;165,5
2018-09-12 17:45;158,95
2018-09-12 18:00;155,15
2018-09-12 18:15;141,4
2018-09-12 18:30;148,75
2018-09-12 18:45;143,3
2018-09-12 19:00;131,75
2018-09-12 19:15;126,5
2018-09-12 19:30;126,65
2018-09-12 19:45;127,85
2018-09-12 20:00;125,2
2018-09-12 20:15;121,95
2018-09-12 20:30;118,05
2018-09-12 20:45;122,25
2018-09-12 21:00;110,5
2018-09-12 21:15;107,45
2018-09-12 21:30;108,15
2018-09-12 21:45;104,7
2018-09-12 22:00;99
2018-09-12 22:15;94,3
2018-09-12 22:30;93,45
2018-09-12 22:45;88,65
2018-09-12 23:00;88,9
2018-09-12 23:15;87,1
2018-09-12 23:30;84,85
2018-09-12 23:45;85,75
2018-09-13 00:00;82,3
2018-09-13 00:15;83,05
2018-09-13 00:30;81,6
2018-09-13 00:45;79,9
2018-09-13 01:00;82,85
2018-09-13 01:15;80,5
2018-09-13 01:30;83,35
2018-09-13 01:45;80,55
2018-09-13 02:00;82,8
2018-09-13 02:15;89,4
2018-09-13 02:30;89,9
2018-09-13 02:45;89,4
2018-09-13 03:00;89,45
2018-09-13 03:15;90,6
2018-09-13 03:30;87,8
2018-09-13 03:45;90,75
2018-09-13 04:00;88,05
2018-09-13 04:15;89,5
2018-09-13 04:30;89,5
2018-09-13 04:45;89,55
2018-09-13 05:00;91,6
2018-09-13 05:15;90,15
2018-09-13 05:30;91
2018-09-13 05:45;90,35
2018-09-13 06:00;91,85
2018-09-13 06:15;88,2
2018-09-13 06:30;88,35
2018-09-13 06:45;84,65
2018-09-13 07:00;87,35
2018-09-13 07:15;86,6
2018-09-13 07:30;129
2018-09-13 07:45;139,35
2018-09-13 08:00;147,15
2018-09-13 08:15;123,7
2018-09-13 08:30;124,15
2018-09-13 08:45;132,05
2018-09-13 09:00;131,8
2018-09-13 09:15;145,05
2018-09-13 09:30;150,75
2018-09-13 09:45;152,7
2018-09-13 10:00;151,6
2018-09-13 10:15;160,2
2018-09-13 10:30;166,05
2018-09-13 10:45;179,55
2018-09-13 11:00;162,2
2018-09-13 11:15;177,8
2018-09-13 11:30;181,8
2018-09-13 11:45;179
2018-09-13 12:00;184
2018-09-13 12:15;191,6
2018-09-13 12:30;188,65
2018-09-13 12:45;188,85
2018-09-13 13:00;197,15
2018-09-13 13:15;196,55
2018-09-13 13:30;191,5
2018-09-13 13:45;189
2018-09-13 14:00;173,45
2018-09-13 14:15;188,7
2018-09-13 14:30;186,45
2018-09-13 14:45;168,85
2018-09-13 15:00;174,05
2018-09-13 15:15;180,6
2018-09-13 15:30;168,35
2018-09-13 15:45;167,65
2018-09-13 16:00;172,4
2018-09-13 16:15;162,25
2018-09-13 16:30;166,3
2018-09-13 16:45;161,35
2018-09-13 17:00;160,15
2018-09-13 17:15;157,3
2018-09-13 17:30;145,55
2018-09-13 17:45;157,1
2018-09-13 18:00;152,8
2018-09-13 18:15;140,2
2018-09-13 18:30;142,15
2018-09-13 18:45;143,5
2018-09-13 19:00;132,1
2018-09-13 19:15;123
2018-09-13 19:30;119,45
2018-09-13 19:45;122,1
2018-09-13 20:00;113,9
2018-09-13 20:15;109,4
2018-09-13 20:30;109,15
2018-09-13 20:45;110,55
2018-09-13 21:00;109,2
2018-09-13 21:15;102,55
2018-09-13 21:30;92,25
2018-09-13 21:45;88,1
2018-09-13 22:00;86,7
2018-09-13 22:15;81,9
2018-09-13 22:30;82,6
2018-09-13 22:45;82,95
2018-09-13 23:00;81,15
2018-09-13 23:15;80,45
2018-09-13 23:30;79,15
2018-09-13 23:45;79,4
2018-09-14 00:00;75,95
2018-09-14 00:15;76,4
2018-09-14 00:30;78,15
2018-09-14 00:45;74,35
2018-09-14 01:00;75,45
2018-09-14 01:15;74,2
2018-09-14 01:30;74,95
2018-09-14 01:45;75,15
2018-09-14 02:00;74,55
2018-09-14 02:15;82,05
2018-09-14 02:30;82,35
2018-09-14 02:45;84,35
2018-09-14 03:00;83
2018-09-14 03:15;84,4
2018-09-14 03:30;86,7
2018-09-14 03:45;84,5
2018-09-14 04:00;86,4
2018-09-14 04:15;87,15
2018-09-14 04:30;86,35
2018-09-14 04:45;101,45
2018-09-14 05:00;110,85
2018-09-14 05:15;105,15
2018-09-14 05:30;98
2018-09-14 05:45;98,45
2018-09-14 06:00;97,3
2018-09-14 06:15;92,1
2018-09-14 06:30;94
2018-09-14 06:45;93,25
2018-09-14 07:00;90,6
2018-09-14 07:15;90
2018-09-14 07:30;136,6
2018-09-14 07:45;130,75
2018-09-14 08:00;127,1
2018-09-14 08:15;116,3
2018-09-14 08:30;124,15
2018-09-14 08:45;134,35
2018-09-14 09:00;147,95
2018-09-14 09:15;140,55
2018-09-14 09:30;152
2018-09-14 09:45;142
2018-09-14 10:00;152,9
2018-09-14 10:15;161,8
2018-09-14 10:30;158,4
2018-09-14 10:45;176,5
2018-09-14 11:00;174,9
2018-09-14 11:15;174,2
2018-09-14 11:30;191,25
2018-09-14 11:45;193,45
2018-09-14 12:00;197,35
2018-09-14 12:15;199,1
2018-09-14 12:30;201,15
2018-09-14 12:45;192,15
2018-09-14 13:00;200,35
2018-09-14 13:15;196
2018-09-14 13:30;184,55
2018-09-14 13:45;190,05
2018-09-14 14:00;188,7
2018-09-14 14:15;186,45
2018-09-14 14:30;184,4
2018-09-14 14:45;194,2
2018-09-14 15:00;189,55
2018-09-14 15:15;184,35
2018-09-14 15:30;163,55
2018-09-14 15:45;170,65
2018-09-14 16:00;164,45
2018-09-14 16:15;160,75
2018-09-14 16:30;169,65
2018-09-14 16:45;170,25
2018-09-14 17:00;161,3
2018-09-14 17:15;157,1
2018-09-14 17:30;166,55
2018-09-14 17:45;161
2018-09-14 18:00;150,45
2018-09-14 18:15;161,85
2018-09-14 18:30;156,5
2018-09-14 18:45;142,25
2018-09-14 19:00;148,15
2018-09-14 19:15;132,95
2018-09-14 19:30;120,85
2018-09-14 19:45;120,9
2018-09-14 20:00;116,3
2018-09-14 20:15;113,45
2018-09-14 20:30;111,75
2018-09-14 20:45;109,5
2018-09-14 21:00;111,8
2018-09-14 21:15;106,95
2018-09-14 21:30;102,1
2018-09-14 21:45;101,25
2018-09-14 22:00;95,8
2018-09-14 22:15;92,35
2018-09-14 22:30;92,1
2018-09-14 22:45;82,6
2018-09-14 23:00;80,35
2018-09-14 23:15;79,2
2018-09-14 23:30;76,6
2018-09-14 23:45;78,15
2018-09-15 00:00;77,95
2018-09-15 00:15;76,65
2018-09-15 00:30;76,35
2018-09-15 00:45;76,85
2018-09-15 01:00;75,45
2018-09-15 01:15;76,05
2018-09-15 01:30;76,85
2018-09-15 01:45;76,8
2018-09-15 02:00;75,55
2018-09-15 02:15;75
2018-09-15 02:30;74,65
2018-09-15 02:45;75,45
2018-09-15 03:00;73,3
2018-09-15 03:15;74,65
2018-09-15 03:30;75,5
2018-09-15 03:45;75,7
2018-09-15 04:00;75,55
2018-09-15 04:15;82,7
2018-09-15 04:30;82,1
2018-09-15 04:45;84,1
2018-09-15 05:00;85,35
2018-09-15 05:15;83,75
2018-09-15 05:30;79,35
2018-09-15 05:45;75,9
2018-09-15 06:00;74,55
2018-09-15 06:15;72,15
2018-09-15 06:30;74,5
2018-09-15 06:45;71,6
2018-09-15 07:00;68,3
2018-09-15 07:15;69,75
2018-09-15 07:30;66,35
2018-09-15 07:45;69,1
2018-09-15 08:00;71,6
2018-09-15 08:15;75,35
2018-09-15 08:30;75,2
2018-09-15 08:45;76,55
2018-09-15 09:00;74,45
2018-09-15 09:15;75,55
2018-09-15 09:30;75,4
2018-09-15 09:45;73,7
2018-09-15 10:00;73,15
2018-09-15 10:15;75,55
2018-09-15 10:30;73,85
2018-09-15 10:45;75,05
2018-09-15 11:00;74,55
2018-09-15 11:15;77,4
2018-09-15 11:30;81,75
2018-09-15 11:45;81,15
2018-09-15 12:00;84,35
2018-09-15 12:15;86
2018-09-15 12:30;82,9
2018-09-15 12:45;89,8
2018-09-15 13:00;90,35
2018-09-15 13:15;92,15
2018-09-15 13:30;81,75
2018-09-15 13:45;85,25
2018-09-15 14:00;83,8
2018-09-15 14:15;89,6
2018-09-15 14:30;83,8
2018-09-15 14:45;87,65
2018-09-15 15:00;84,05
2018-09-15 15:15;88,95
2018-09-15 15:30;90,35
2018-09-15 15:45;90,05
2018-09-15 16:00;87,6
2018-09-15 16:15;90,2
2018-09-15 16:30;84,8
2018-09-15 16:45;87,15
2018-09-15 17:00;87,3
2018-09-15 17:15;88,05
2018-09-15 17:30;84,45
2018-09-15 17:45;84,35
2018-09-15 18:00;81,15
2018-09-15 18:15;82,3
2018-09-15 18:30;82,8
2018-09-15 18:45;87,2
2018-09-15 19:00;88,2
2018-09-15 19:15;83,55
2018-09-15 19:30;87,95
2018-09-15 19:45;89,85
2018-09-15 20:00;93,55
2018-09-15 20:15;99,65
2018-09-15 20:30;95,5
2018-09-15 20:45;94,05
2018-09-15 21:00;93,95
2018-09-15 21:15;93,4
2018-09-15 21:30;93,2
2018-09-15 21:45;96,15
2018-09-15 22:00;91,9
2018-09-15 22:15;90,1
2018-09-15 22:30;90,5
2018-09-15 22:45;89,4
2018-09-15 23:00;86,3
2018-09-15 23:15;78,9
2018-09-15 23:30;78,75
2018-09-15 23:45;77,9
2018-09-16 00:00;77,3
2018-09-16 00:15;75,25
2018-09-16 00:30;74,85
2018-09-16 00:45;76,65
2018-09-16 01:00;76,1
2018-09-16 01:15;76,1
2018-09-16 01:30;76,75
2018-09-16 01:45;74,05
2018-09-16 02:00;74,6
2018-09-16 02:15;75,1
2018-09-16 02:30;75,05
2018-09-16 02:45;75,05
2018-09-16 03:00;76,35
2018-09-16 03:15;75,45
2018-09-16 03:30;73,5
2018-09-16 03:45;75,1
2018-09-16 04:00;75,95
2018-09-16 04:15;75,4
2018-09-16 04:30;77,95
2018-09-16 04:45;78,95
2018-09-16 05:00;76,6
2018-09-16 05:15;75,8
2018-09-16 05:30;76,55
2018-09-16 05:45;75,85
2018-09-16 06:00;77,15
2018-09-16 06:15;73,95
2018-09-16 06:30;75,4
2018-09-16 06:45;73,15
2018-09-16 07:00;71,7
2018-09-16 07:15;70,85
2018-09-16 07:30;68,55
2018-09-16 07:45;68,6
2018-09-16 08:00;71,3
2018-09-16 08:15;71,85
2018-09-16 08:30;71,5
2018-09-16 08:45;71,5
2018-09-16 09:00;73,5
2018-09-16 09:15;71,95
2018-09-16 09:30;73,45
2018-09-16 09:45;71,3
2018-09-16 10:00;77,05
2018-09-16 10:15;81,95
2018-09-16 10:30;80,05
2018-09-16 10:45;82
2018-09-16 11:00;78,6
2018-09-16 11:15;79,5
2018-09-16 11:30;78,9
2018-09-16 11:45;78,25
2018-09-16 12:00;75,85
2018-09-16 12:15;78,55
2018-09-16 12:30;78,65
2018-09-16 12:45;81,55
2018-09-16 13:00;77,7
2018-09-16 13:15;82,5
2018-09-16 13:30;78,75
2018-09-16 13:45;79,05
2018-09-16 14:00;79,2
2018-09-16 14:15;81,4
2018-09-16 14:30;81,1
2018-09-16 14:45;81,45
2018-09-16 15:00;78,25
2018-09-16 15:15;81,55
2018-09-16 15:30;80,75
2018-09-16 15:45;80,55
2018-09-16 16:00;79,85
2018-09-16 16:15;78,75
2018-09-16 16:30;78,75
2018-09-16 16:45;80,3
2018-09-16 17:00;80,05
2018-09-16 17:15;81,7
2018-09-16 17:30;78,8
2018-09-16 17:45;83,5
2018-09-16 18:00;80,95
2018-09-16 18:15;80,45
2018-09-16 18:30;80,3
2018-09-16 18:45;82,8
2018-09-16 19:00;83,15
2018-09-16 19:15;81,95
2018-09-16 19:30;82,9
2018-09-16 19:45;86,8
2018-09-16 20:00;92,6
2018-09-16 20:15;92,15
2018-09-16 20:30;92,75
2018-09-16 20:45;92,1
2018-09-16 21:00;88,85
2018-09-16 21:15;89,65
2018-09-16 21:30;90,25
2018-09-16 21:45;88,55
2018-09-16 22:00;83,8
2018-09-16 22:15;80,6
2018-09-16 22:30;76,7
2018-09-16 22:45;78,4
2018-09-16 23:00;78,4
2018-09-16 23:15;77,5
2018-09-16 23:30;76,55
2018-09-16 23:45;77,5

